Location: Unspecified
(0.0000°N, 0.0000°E)
Time: 19:05:33
(UTC+00:00)

Hubble Space Telescope - Visible Passes

Search period start: 28 November 2022 00:00
Search period end: 08 December 2022 00:00
Orbit: 530 x 534 km, 28.5° (Epoch: 27 November)

Date Brightness Start Highest point End Pass type
(mag) Time Alt. Az. Time Alt. Az. Time Alt. Az.
28 Nov 2.4 18:57:57 10° W 19:01:39 32° SSW 19:05:21 10° SE visible
29 Nov 2.0 05:10:30 10° SW 05:14:23 42° SSE 05:18:16 10° ENE visible
29 Nov 3.0 18:45:42 10° W 18:49:03 24° SSW 18:52:25 10° SSE visible
30 Nov 3.9 03:20:26 10° SSE 03:20:37 10° SSE 03:21:27 10° SE visible
30 Nov 1.3 04:57:44 10° SW 05:01:47 59° SSE 05:05:48 10° ENE visible
30 Nov 3.5 18:33:35 10° WSW 18:36:28 18° SSW 18:39:21 10° SSE visible
01 Dec 4.0 03:09:51 11° SE 03:09:51 11° SE 03:10:15 10° ESE visible
01 Dec 0.7 04:45:09 11° WSW 04:49:09 84° SSE 04:53:14 10° ENE visible
01 Dec 3.7 18:21:43 10° WSW 18:23:53 14° SSW 18:26:05 10° S visible
02 Dec 0.6 04:34:37 29° WSW 04:36:32 70° NNW 04:40:36 10° NE visible
03 Dec 0.9 04:23:59 49° NNW 04:23:59 49° NNW 04:27:52 10° NE visible
04 Dec 2.4 04:13:14 22° NNE 04:13:14 22° NNE 04:15:03 10° NE visible
